Regional Weather Roundup
Issued by NWS Charleston, SC

Current Version | Previous Version | Graphics & Text | Print | Product List | Glossary On
Versions: 1 2 3 4 5 6 7 8 9 10 11 12 13 14 15 16 17 18 19 20 21 22 23 24 25 26 27 28 29 30 31 32 33 34 35 36 37 38 39 40 41 42 43 44 45 46 47 48 49 50
602 ASUS42 KCHS 021912 RWRCHS REGIONAL WEATHER ROUNDUP NATIONAL WEATHER SERVICE CHARLESTON SC 200 PM EST FRI DEC 02 2016 NOTE: "FAIR" INDICATES FEW OR NO CLOUDS BELOW 12,000 FEET WITH NO SIGNIFICANT WEATHER AND/OR OBSTRUCTIONS TO VISIBILITY. NOT ALL STATIONS ARE QUALITY CONTROLLED. USE DATA WITH CAUTION... ESPECIALLY DEWPOINT OBSERVATIONS. SCZ027-030-031-034>040-042>050-022000- ...SOUTHEAST SOUTH CAROLINA... CITY SKY/WX TMP DP RH WIND PRES REMARKS N CHARLESTON SUNNY 62 33 33 N12 30.13F WATERFRONT PRK N/A 59 40 49 N8 30.13F MOUNT PLEASANT NOT AVBL JOHNS ISLAND FAIR 61 36 39 NW6G13 30.13F PINOPOLIS N/A 55 37 50 CALM 30.06F MONCKS CORNER FAIR 57 32 38 NW3 30.14F SUMMERVILLE FAIR 61 36 39 N9 30.15F BEAUFORT MCAS SUNNY 62 36 37 NW9 30.15F BEAUFORT ARPT FAIR 59 37 44 NW7 30.14F HILTON HEAD IS SUNNY 61 39 44 NW9 30.15F WALTERBORO CLEAR 61 32 33 N6 30.16F ALLENDALE FAIR 61 34 36 VRB7 30.15F ...SOUTHERN MIDLANDS AND PEE DEE... CITY SKY/WX TMP DP RH WIND PRES REMARKS GEORGETOWN FAIR 59 34 38 NW8 30.13F KINGSTREE FAIR 57 32 38 CALM 30.14S ORANGEBURG SUNNY 60 31 33 NW9 30.15F BARNWELL NOT AVBL AIKEN NOT AVBL MANNING NOT AVBL COLUMBIA MOSUNNY 60 32 34 W7 30.14F SUMTER SUNNY 59 32 36 NW9 30.12F FLORENCE SUNNY 58 33 39 NW9 30.13F MYRTLE BEACH SUNNY 59 32 36 N12 30.13F N MYRTLE BEACH SUNNY 59 33 37 VRB7 30.11F $$ GAZ063-065-086>088-099>101-113>116-118-119-134>141-150-022000- ...SOUTHEAST GEORGIA... CITY SKY/WX TMP DP RH WIND PRES REMARKS SAVANNAH ARPT MOSUNNY 63 35 35 NW8 30.15F HUNTER AAF SUNNY 64 42 45 N9 30.12F FORT STEWART SUNNY 64 36 35 NW8 30.13F STATESBORO SUNNY 62 39 42 NW10 30.16F SYLVANIA CLEAR N/A N/A N/A NW3 30.17F CLAXTON FAIR 63 38 39 W5 30.16F ...CSRA...CENTRAL AND FAR SOUTHEAST GEORGIA... CITY SKY/WX TMP DP RH WIND PRES REMARKS THOMSON SUNNY 62 35 36 W10 30.21F AUGUSTA-BUSH SUNNY 63 31 30 NW7 30.16F AUGUSTA-DANIEL SUNNY 59 30 33 VRB5 30.17F SWAINSBORO FAIR 61 32 33 N8 30.17F VIDALIA SUNNY 63 37 39 NW8 30.17F EASTMAN FAIR 65 0 7 NW6G16 30.20F HAZLEHURST FAIR 64 34 32 N8 30.16F ALMA SUNNY 65 33 30 NW9 30.16F WAYCROSS SUNNY 68 37 32 N7 30.15F JESUP FAIR 64 41 42 N5 30.15F BAXLEY FAIR 64 37 36 N7 30.16F BRUNSWICK SUNNY 66 41 39 NW8 30.15F SAINT SIMONS SUNNY 65 32 29 NW7 30.13F $$ SCZ027-028-034-036>038-045-046-048>050-GAZ119-141-022000- ...LAKE AND SUPPLEMENTAL COASTAL OBSERVATIONS... STATION/POSITION TIME TEMP WIND PRES WAVE SWELL AIR SEA DIR/SP/G HT/PER HT/PER/DIR (UTC) (F) (DEG/KT/KT) (MB) (FT/S) (FT/S/D) WINYAH BAY NOT AVBL LAKE MURRAY 1820 56 270/ 7/ 10 1020.7 ACE BASIN NERRS 1745 60 360/ 3 1021.0 FORT PULASKI 1848 59 63 350/ 10/ 15 1020.7F SAPELO ISLAND 1800 63 330/ 7 1021.0 $$ ANZ835-935-AMZ111-154-330-350-352-354-370-450-454-472-022000- ...C-MAN AND BUOY OBSERVATIONS... STATION/POSITION TIME TEMP WIND PRES WAVE SWELL AIR SEA DIR/SP/G HT/PER HT/PER/DIR (UTC) (F) (DEG/KT/KT) (MB) (FT/S) (FT/S/D) BUOY 41004 1850 58 74 10/ 14/ 17 1019.6R 4/ 5 2/140/ 9 BUOY 41008 1850 57 65 320/ 10/ 14 1020.6F 2/ 9 2/ 80/ 9 FOLLY BEACH CMAN 1800 59 340/ 6/ 9 1021.5F CAPERS NEARSHORE 1808 56 63 20/ 8/ 10 1020.6F FRIPP NEARSHORE 1808 56 64 20/ 8/ 12 1021.0F STATION/POSITION TIME TEMP WIND PRES WAVE SWELL AIR SEA DIR/SP/G HT/PER HT/PER/DIR (UTC) (F) (DEG/KT/KT) (MB) (FT/S) (FT/S/D) 5E ST. MARYS GA 1830 67 N/A 2/10 FRYING PAN BUOY 1850 57 74 340/ 14/ 17 1018.9F 4/ 5 2/160/ 9 BUOY 41025 1850 55 77 340/ 10/ 16 1017.6F 4/ 7 3/ 60/ 7 CAPE LOOKOUT NC 1800 55 320/ 6/ 8 1018.3F BUOY 41002 1850 70 74 310/ 14/ 17 1016.3F 5/ 7 3/250/ 7 BUOY 41010 NOT AVBL ST AUGUSTINE FL 1900 60 67 10/ 10/ 12 1021.5F $$

USA.gov is the U.S. government's official web portal to all federal, state and local government web resources and services.